Content
SEND FEEDBACK

Daily
Averages
Monthly
Summary
Italy

PARMA, ITALY


Home > Europe > Italy
Elevation: 187 feet     Latitude: 44 48N     Longitude: 010 18E

WEATHER
 
SELECT A DAY
Number of Records: 73,467;   Date Range: 9/14/00 - 8/10/14
 
SHARE

PRINT THIS DATA

[ ← Previous Day ]
WEATHER ALMANAC - MAY 9, 2013
[ Next Day → ]
[ °C ]   °F
Weather ElementAverageHighLow
Temperature69.8 °F78.8 °F (2:50 pm)55.4 °F (6:00 am)
Dewpoint57.1 °F62.6 °F (10:50 am)53.6 °F (6:00 am)
Humidity66.5 %94 % (6:00 am)44 % (1:50 pm)
Barometer29.98 in30.04 in (8:50 am)29.92 in (6:50 pm)
Wind Speed3.9 mph6.9 mph (4:50 pm)
Weather ElementAverage
Visibility6.2 mi
Wind DirectionNE (41.1 °)

Weather ElementTotal
Precipitation---
Cooling Degree Days2.1 (Base 65)
Growing Degree Days17.1 (Base 50)
Averaged from 19 records on May 9, 2013
WEATHER CONDITIONS BREAKOUT
WIND DIRECTION BREAKOUT
WEATHER BY HOUR - MAY 9, 2013
[ °C ]   °F
Local TimeTemperatureDewpointHumidityBarometerVisibilityWind DirectionWind SpeedGust SpeedPrecipitationEventsConditions
6:00 AM55.4 °F53.6 °F94 %30.01 inVariable3.5 mphClear
6:50 AM55.4 °F53.6 °F94 %30.01 inVariable3.5 mphClear
7:50 AM60.8 °F57.2 °F88 %30.01 in6.2 miVariable3.5 mphPartly Cloudy
8:50 AM64.4 °F59.0 °F83 %30.04 inVariable3.5 mphClear
9:50 AM68.0 °F60.8 °F78 %30.04 inNW (310°)5.8 mphClear
10:50 AM69.8 °F62.6 °F78 %30.04 inVariable3.5 mphClear
11:50 AM73.4 °F59.0 °F61 %30.04 inVariable2.3 mphClear
12:50 PM73.4 °F57.2 °F57 %30.01 inVariable3.5 mphClear
1:50 PM77.0 °F53.6 °F44 %30.01 inEast (90°)4.6 mphClear
2:50 PM78.8 °F55.4 °F44 %29.98 inVariable1.2 mphClear
3:50 PM77.0 °F55.4 °F47 %29.98 inNE (50°)5.8 mphClear
4:50 PM77.0 °F55.4 °F47 %29.95 inEast (90°)6.9 mphClear
5:50 PM77.0 °F55.4 °F47 %29.95 inENE (70°)6.9 mphClear
6:50 PM75.2 °F57.2 °F53 %29.92 inVariable3.5 mphClear
7:50 PM73.4 °F57.2 °F57 %29.92 inVariable3.5 mphClear
8:50 PM71.6 °F55.4 °F57 %29.92 inVariable2.3 mphClear
9:50 PM68.0 °F59.0 °F73 %29.95 inVariable2.3 mphClear
10:50 PM66.2 °F59.0 °F78 %29.92 inVariable3.5 mphClear
11:50 PM64.4 °F59.0 °F83 %29.92 inSouth (170°)4.6 mphClear
Hourly data recorded from LIMP, located miles away from Parma, Italy







STORIES FROM OUR PARTNERS